GBRPC EGJB-EGHI

Flight info

Callsign GBRPC
Flight time 0h 36m
Altitude 5000
Route ORTAC3E ORTAC Q41 THRED THRED1S
Aircraft BN2P/L-SFG/C

Departure

Time 2026-04-25 13:39
Airport Guernsey Airport (EGJB)

Arrival

Time 2026-04-25 14:15
Airport Southampton Airport (EGHI)
Time Latitude Longitude Altitude Speed Heading
2026-04-25 13:24 49.43219 -2.59878 341 ft 0 kts 303°
2026-04-25 13:32 49.43222 -2.59915 341 ft 8 kts 281°
2026-04-25 13:32 49.43296 -2.59930 341 ft 16 kts 358°
2026-04-25 13:33 49.43342 -2.59966 339 ft 9 kts 268°
2026-04-25 13:33 49.43338 -2.60121 338 ft 20 kts 268°
2026-04-25 13:33 49.43333 -2.60299 333 ft 12 kts 267°
2026-04-25 13:33 49.43330 -2.60411 331 ft 20 kts 268°
2026-04-25 13:34 49.43347 -2.60773 322 ft 22 kts 280°
2026-04-25 13:34 49.43363 -2.61053 316 ft 31 kts 269°
2026-04-25 13:34 49.43359 -2.61236 312 ft 0 kts 281°
2026-04-25 13:36 49.43364 -2.61260 311 ft 10 kts 299°
2026-04-25 13:36 49.43444 -2.61360 309 ft 15 kts 17°
2026-04-25 13:36 49.43467 -2.61285 310 ft 0 kts 86°
2026-04-25 13:37 49.43468 -2.61248 311 ft 12 kts 88°
2026-04-25 13:37 49.43477 -2.60941 318 ft 59 kts 87°
2026-04-25 13:37 49.43492 -2.60417 330 ft 90 kts 87°
2026-04-25 13:38 49.43504 -2.59358 408 ft 114 kts 90°
2026-04-25 13:38 49.43513 -2.58967 479 ft 117 kts 87°
2026-04-25 13:38 49.43518 -2.58832 496 ft 119 kts 86°
2026-04-25 13:38 49.43546 -2.57987 615 ft 125 kts 87°
2026-04-25 13:39 49.43574 -2.56805 872 ft 130 kts 87°
2026-04-25 13:39 49.43599 -2.55401 1137 ft 136 kts 87°
2026-04-25 13:39 49.43634 -2.53904 1400 ft 143 kts 88°
2026-04-25 13:39 49.43688 -2.52373 1672 ft 146 kts 82°
2026-04-25 13:40 49.44223 -2.51067 1848 ft 151 kts 37°
2026-04-25 13:40 49.45234 -2.50645 2057 ft 153 kts
2026-04-25 13:40 49.46304 -2.50613 2257 ft 154 kts
2026-04-25 13:40 49.47380 -2.50551 2460 ft 155 kts
2026-04-25 13:41 49.48458 -2.50482 2670 ft 155 kts
2026-04-25 13:41 49.49540 -2.50418 2882 ft 157 kts
2026-04-25 13:41 49.50642 -2.50346 3077 ft 158 kts
2026-04-25 13:41 49.51725 -2.50281 3278 ft 157 kts
2026-04-25 13:42 49.52818 -2.50220 3479 ft 157 kts
2026-04-25 13:42 49.53908 -2.50152 3679 ft 156 kts
2026-04-25 13:42 49.54995 -2.50083 3878 ft 156 kts
2026-04-25 13:42 49.56075 -2.50013 4078 ft 156 kts
2026-04-25 13:43 49.57116 -2.49528 4267 ft 158 kts 26°
2026-04-25 13:43 49.58082 -2.48718 4478 ft 158 kts 25°
2026-04-25 13:43 49.59057 -2.47945 4677 ft 157 kts 24°
2026-04-25 13:43 49.60015 -2.47184 4887 ft 157 kts 24°
2026-04-25 13:44 49.60992 -2.46403 5027 ft 162 kts 25°
2026-04-25 13:44 49.62018 -2.45581 5037 ft 170 kts 24°
2026-04-25 13:44 49.63079 -2.44728 5041 ft 174 kts 25°
2026-04-25 13:44 49.64159 -2.43860 5037 ft 176 kts 25°
2026-04-25 13:45 49.65253 -2.42981 5038 ft 178 kts 24°
2026-04-25 13:45 49.66353 -2.42097 5038 ft 178 kts 25°
2026-04-25 13:45 49.67446 -2.41220 5031 ft 179 kts 24°
2026-04-25 13:45 49.68563 -2.40321 5033 ft 179 kts 24°
2026-04-25 13:46 49.69652 -2.39445 5033 ft 179 kts 25°
2026-04-25 13:46 49.70701 -2.38419 5030 ft 180 kts 37°
2026-04-25 13:46 49.71651 -2.37162 5032 ft 180 kts 38°
2026-04-25 13:46 49.72610 -2.35920 5027 ft 180 kts 37°
2026-04-25 13:47 49.73573 -2.34686 5029 ft 180 kts 37°
2026-04-25 13:47 49.74535 -2.33446 5032 ft 180 kts 37°
2026-04-25 13:47 49.75497 -2.32204 5034 ft 180 kts 37°
2026-04-25 13:47 49.76461 -2.30962 5030 ft 180 kts 38°
2026-04-25 13:48 49.77425 -2.29719 5030 ft 181 kts 37°
2026-04-25 13:48 49.78376 -2.28489 5031 ft 181 kts 37°
2026-04-25 13:48 49.79338 -2.27243 5028 ft 181 kts 37°
2026-04-25 13:48 49.80302 -2.25998 5031 ft 180 kts 35°
2026-04-25 13:49 49.81263 -2.24759 5030 ft 180 kts 37°
2026-04-25 13:49 49.82221 -2.23519 5030 ft 179 kts 37°
2026-04-25 13:49 49.83175 -2.22281 5027 ft 179 kts 37°
2026-04-25 13:49 49.84128 -2.21044 5026 ft 179 kts 37°
2026-04-25 13:50 49.85083 -2.19808 5022 ft 179 kts 37°
2026-04-25 13:50 49.86039 -2.18569 5028 ft 179 kts 37°
2026-04-25 13:50 49.86982 -2.17345 5028 ft 180 kts 37°
2026-04-25 13:50 49.87939 -2.16101 5031 ft 179 kts 37°
2026-04-25 13:51 49.88895 -2.14859 5033 ft 180 kts 37°
2026-04-25 13:51 49.89851 -2.13614 5034 ft 180 kts 36°
2026-04-25 13:51 49.90807 -2.12372 5037 ft 179 kts 37°
2026-04-25 13:51 49.91764 -2.11126 5036 ft 179 kts 37°
2026-04-25 13:52 49.92720 -2.09885 5037 ft 179 kts 37°
2026-04-25 13:52 49.93675 -2.08641 5035 ft 179 kts 37°
2026-04-25 13:52 49.94628 -2.07398 5036 ft 179 kts 37°
2026-04-25 13:52 49.95565 -2.06176 5036 ft 178 kts 37°
2026-04-25 13:53 49.96515 -2.04936 5035 ft 178 kts 37°
2026-04-25 13:53 49.97463 -2.03698 5036 ft 178 kts 37°
2026-04-25 13:53 49.98410 -2.02459 5036 ft 178 kts 37°
2026-04-25 13:53 49.99357 -2.01222 5041 ft 178 kts 36°
2026-04-25 13:54 50.00369 -2.00154 5032 ft 175 kts 21°
2026-04-25 13:54 50.01490 -1.99438 5039 ft 175 kts 20°
2026-04-25 13:54 50.02607 -1.98686 5043 ft 175 kts 20°
2026-04-25 13:54 50.03706 -1.97931 5045 ft 175 kts 21°
2026-04-25 13:55 50.04822 -1.97172 5047 ft 175 kts 20°
2026-04-25 13:55 50.05937 -1.96421 5048 ft 175 kts 20°
2026-04-25 13:55 50.07054 -1.95667 5047 ft 175 kts 20°
2026-04-25 13:55 50.08170 -1.94910 5045 ft 175 kts 21°
2026-04-25 13:56 50.09287 -1.94152 5048 ft 175 kts 21°
2026-04-25 13:56 50.10407 -1.93392 5049 ft 175 kts 21°
2026-04-25 13:56 50.11527 -1.92633 5043 ft 176 kts 21°
2026-04-25 13:56 50.12648 -1.91872 5051 ft 176 kts 21°
2026-04-25 13:57 50.13752 -1.91122 5055 ft 175 kts 21°
2026-04-25 13:57 50.14508 -1.90607 5052 ft 175 kts 21°
2026-04-25 13:57 50.15991 -1.89599 5054 ft 176 kts 22°
2026-04-25 13:57 50.17113 -1.88835 5054 ft 176 kts 21°
2026-04-25 13:58 50.18237 -1.88071 5051 ft 176 kts 22°
2026-04-25 13:58 50.19360 -1.87307 5056 ft 176 kts 21°
2026-04-25 13:58 50.20486 -1.86541 5054 ft 176 kts 21°
2026-04-25 13:58 50.21608 -1.85774 5052 ft 176 kts 22°
2026-04-25 13:59 50.22718 -1.85016 5052 ft 177 kts 21°
2026-04-25 13:59 50.23842 -1.84248 5056 ft 176 kts 22°
2026-04-25 13:59 50.24967 -1.83480 5053 ft 177 kts 21°
2026-04-25 13:59 50.26094 -1.82712 5053 ft 177 kts 22°
2026-04-25 14:00 50.27221 -1.81942 5054 ft 177 kts 22°
2026-04-25 14:00 50.28346 -1.81172 5056 ft 177 kts 22°
2026-04-25 14:00 50.29470 -1.80402 5055 ft 176 kts 22°
2026-04-25 14:00 50.30593 -1.79633 5052 ft 176 kts 22°
2026-04-25 14:01 50.31720 -1.78861 5044 ft 177 kts 22°
2026-04-25 14:01 50.32832 -1.78101 5047 ft 177 kts 22°
2026-04-25 14:01 50.33959 -1.77329 5048 ft 177 kts 22°
2026-04-25 14:01 50.35084 -1.76556 5054 ft 176 kts 22°
2026-04-25 14:02 50.36208 -1.75783 5044 ft 177 kts 22°
2026-04-25 14:02 50.37335 -1.75009 5045 ft 177 kts 22°
2026-04-25 14:02 50.38464 -1.74235 5046 ft 177 kts 22°
2026-04-25 14:02 50.39211 -1.73721 5045 ft 177 kts 22°
2026-04-25 14:03 50.40718 -1.72684 5047 ft 177 kts 22°
2026-04-25 14:03 50.41847 -1.71908 5047 ft 177 kts 22°
2026-04-25 14:03 50.42958 -1.71143 5045 ft 177 kts 23°
2026-04-25 14:03 50.44086 -1.70366 5044 ft 177 kts 23°
2026-04-25 14:04 50.45213 -1.69588 5045 ft 177 kts 23°
2026-04-25 14:04 50.46341 -1.68811 5049 ft 177 kts 23°
2026-04-25 14:04 50.47471 -1.68031 5047 ft 177 kts 23°
2026-04-25 14:04 50.48601 -1.67251 5047 ft 177 kts 23°
2026-04-25 14:05 50.49730 -1.66471 5045 ft 177 kts 23°
2026-04-25 14:05 50.50859 -1.65692 5046 ft 177 kts 23°
2026-04-25 14:05 50.51989 -1.64910 5049 ft 177 kts 23°
2026-04-25 14:05 50.53103 -1.64140 5051 ft 177 kts 23°
2026-04-25 14:06 50.54232 -1.63359 5057 ft 177 kts 23°
2026-04-25 14:06 50.55362 -1.62577 5055 ft 178 kts 23°
2026-04-25 14:06 50.56493 -1.61792 5051 ft 178 kts 23°
2026-04-25 14:06 50.57625 -1.61008 5054 ft 178 kts 23°
2026-04-25 14:07 50.58735 -1.60238 5050 ft 178 kts 23°
2026-04-25 14:07 50.59853 -1.59399 5054 ft 178 kts 26°
2026-04-25 14:07 50.60963 -1.58533 5051 ft 178 kts 26°
2026-04-25 14:07 50.62093 -1.57673 4932 ft 183 kts 25°
2026-04-25 14:08 50.63237 -1.56806 4780 ft 186 kts 25°
2026-04-25 14:08 50.64411 -1.55916 4643 ft 188 kts 25°
2026-04-25 14:08 50.65588 -1.55023 4488 ft 188 kts 25°
2026-04-25 14:08 50.66769 -1.54125 4346 ft 189 kts 26°
2026-04-25 14:09 50.67955 -1.53223 4181 ft 189 kts 26°
2026-04-25 14:09 50.69138 -1.52320 4035 ft 189 kts 26°
2026-04-25 14:09 50.70326 -1.51414 3885 ft 190 kts 26°
2026-04-25 14:09 50.71116 -1.50817 3789 ft 190 kts 25°
2026-04-25 14:10 50.72694 -1.49625 3625 ft 186 kts 26°
2026-04-25 14:10 50.73842 -1.48746 3516 ft 185 kts 26°
2026-04-25 14:10 50.74999 -1.47861 3399 ft 185 kts 26°
2026-04-25 14:10 50.76128 -1.46998 3468 ft 176 kts 26°
2026-04-25 14:11 50.77256 -1.46138 3316 ft 183 kts 26°
2026-04-25 14:11 50.78405 -1.45264 3175 ft 184 kts 26°
2026-04-25 14:11 50.79575 -1.44362 2940 ft 191 kts 26°
2026-04-25 14:11 50.80804 -1.43552 2698 ft 193 kts 20°
2026-04-25 14:12 50.82071 -1.42884 2537 ft 188 kts 19°
2026-04-25 14:12 50.83302 -1.42205 2410 ft 190 kts 20°
2026-04-25 14:12 50.84515 -1.41517 2242 ft 191 kts 21°
2026-04-25 14:12 50.85783 -1.40806 2065 ft 190 kts 20°
2026-04-25 14:13 50.87032 -1.40124 1879 ft 191 kts 20°
2026-04-25 14:13 50.87993 -1.39599 1685 ft 193 kts 20°
2026-04-25 14:13 50.88296 -1.39429 1648 ft 191 kts 21°
2026-04-25 14:13 50.89548 -1.38715 1362 ft 189 kts 20°
2026-04-25 14:14 50.90709 -1.38079 997 ft 167 kts 21°
2026-04-25 14:14 50.91761 -1.37485 621 ft 149 kts 21°
2026-04-25 14:14 50.92662 -1.36991 431 ft 130 kts 19°
2026-04-25 14:14 50.93487 -1.36539 253 ft 120 kts 22°
2026-04-25 14:15 50.94168 -1.36161 47 ft 98 kts 23°
2026-04-25 14:15 50.94203 -1.36115 30 ft 0 kts 141°